Fairfield, CA

10:49 AM PDT on May 21, 2018 (GMT -0700)
Travis Air Force Base

Weather History for KSUU - March, 2013

Change the Weather History Date:

Tuesday, March 12, 2013

  Actual Average Record
Temperature  
Mean Temperature 56 °F -  
Max Temperature 74 °F 64 °F 78 °F (2004)
Min Temperature 39 °F 42 °F 35 °F (2009)
Degree Days  
Heating Degree Days 8    
Growing Degree Days 6 (Base 50)    
Moisture  
Dew Point 50 °F    
Average Humidity 75    
Maximum Humidity 100    
Minimum Humidity 42    
Precipitation  
Precipitation 0.00 in - - ()
Sea Level Pressure  
Sea Level Pressure 30.11 in    
Wind  
Wind Speed 5 mph (South)    
Max Wind Speed 10 mph    
Max Gust Speed -    
Visibility 10 miles    
Events      
Averages and records for this station are not official NWS values.
T = Trace of Precipitation, MM = Missing Value Source: NWS Daily Summary

Daily Weather History Graph

Daily Weather History Graph

Search for Another Location

Airport or City:

Astronomy

Mar. 12, 2013 Rise Set
Actual Time 7:22 AM PDT 7:12 PM PDT
Civil Twilight 6:56 AM PDT 7:38 PM PDT
Nautical Twilight 6:26 AM PDT 8:09 PM PDT
Astronomical Twilight 5:55 AM PDT 8:40 PM PDT
Moon 7:33 AM PDT (3/12) 8:31 PM PDT (3/12)
Length of Visible Light 12h 42m
Length of Day
11h 49m
New Moon, 1% of the Moon is Illuminated
Mar 12
New Moon
Mar 19
First Quarter
Mar 27
Full
Apr 2
Last Quarter
Apr 10
New

Hourly Weather History & Observations

Time (PDT) Temp. Dew Point Humidity Pressure Visibility Wind Dir Wind Speed Gust Speed Precip Events Conditions
12:58 AM 48.7 °F 48.6 °F 99% 30.11 in 10.0 mi WSW 10.4 mph - N/A   Clear
1:58 AM 49.6 °F 49.3 °F 99% 30.12 in 9.0 mi WSW 10.4 mph - N/A   Clear
2:58 AM 47.5 °F 47.3 °F 99% 30.12 in 10.0 mi SSW 2.3 mph - N/A   Clear
3:58 AM 39.2 °F 39.2 °F 100% 30.11 in 10.0 mi Calm Calm - N/A   Clear
4:58 AM 41.0 °F 41.0 °F 100% 30.12 in 10.0 mi Calm Calm - N/A   Clear
5:58 AM 40.5 °F 40.5 °F 100% 30.13 in 10.0 mi Calm Calm - N/A   Clear
6:58 AM 40.5 °F 40.5 °F 100% 30.13 in 10.0 mi South 2.3 mph - N/A   Clear
7:58 AM 45.0 °F 44.6 °F 99% 30.14 in 10.0 mi South 2.3 mph - N/A   Clear
8:58 AM 50.9 °F 50.5 °F 99% 30.17 in 10.0 mi Calm Calm - N/A   Clear
9:58 AM 55.6 °F 53.2 °F 92% 30.18 in 10.0 mi NNE 8.1 mph - N/A   Clear
10:58 AM 59.2 °F 54.7 °F 85% 30.18 in 10.0 mi NE 8.1 mph - N/A   Clear
11:58 AM 63.3 °F 53.1 °F 69% 30.17 in 10.0 mi NNE 6.9 mph - N/A   Clear
12:58 PM 66.4 °F 53.4 °F 63% 30.16 in 10.0 mi ENE 6.9 mph - N/A   Clear
1:31 PM 68.0 °F 51.8 °F 56% 30.12 in 10.0 mi ENE 4.6 mph - N/A   Light Drizzle
1:40 PM 68.0 °F 51.8 °F 56% 30.12 in 10.0 mi Variable 3.5 mph - N/A   Clear
1:58 PM 69.3 °F 51.8 °F 54% 30.13 in 10.0 mi Variable 2.3 mph - 0.00 in   Clear
2:58 PM 72.0 °F 50.2 °F 46% 30.10 in 10.0 mi ENE 1.2 mph - N/A   Clear
3:39 PM 73.4 °F 50.0 °F 44% 30.06 in 10.0 mi Variable 4.6 mph - N/A   Light Drizzle
3:41 PM 73.4 °F 50.0 °F 44% 30.07 in 10.0 mi Variable 2.3 mph - N/A   Clear
3:58 PM 72.7 °F 49.5 °F 44% 30.08 in 10.0 mi Variable 3.5 mph - 0.00 in   Clear
4:58 PM 74.1 °F 49.6 °F 42% 30.08 in 10.0 mi Variable 3.5 mph - N/A   Clear
5:18 PM 73.4 °F 50.0 °F 44% 30.06 in 10.0 mi ESE 2.3 mph - N/A   Light Drizzle
5:28 PM 73.4 °F 51.8 °F 47% 30.05 in 10.0 mi Calm Calm - N/A   Clear
5:58 PM 72.7 °F 50.9 °F 46% 30.07 in 10.0 mi SSE 3.5 mph - 0.00 in   Clear
6:58 PM 69.3 °F 54.3 °F 59% 30.08 in 10.0 mi SSW 3.5 mph - N/A   Clear
7:58 PM 63.1 °F 55.0 °F 75% 30.09 in 10.0 mi WSW 8.1 mph - N/A   Clear
8:58 PM 58.5 °F 56.3 °F 93% 30.10 in 10.0 mi WSW 9.2 mph - N/A   Clear
9:58 PM 55.6 °F 54.5 °F 96% 30.11 in 10.0 mi WSW 9.2 mph - N/A   Clear
10:58 PM 53.6 °F 53.4 °F 99% 30.12 in 10.0 mi South 5.8 mph - N/A   Clear
11:58 PM 50.4 °F 50.4 °F 100% 30.13 in 10.0 mi WSW 4.6 mph - N/A   Clear